TimeEST,TemperatureF,Dew PointF,Humidity,Sea Level PressureIn,VisibilityMPH,Wind Direction,Wind SpeedMPH,Gust SpeedMPH,PrecipitationIn,Events,Conditions,WindDirDegrees,DateUTC
12:13 AM,30.2,24.8,80,29.68,6.0,NW,17.3,25.3,0.00,Snow,Light Snow,310,2013-11-09 05:13:00
12:21 AM,30.2,23.0,75,29.68,8.0,WNW,19.6,29.9,0.00,,Overcast,300,2013-11-09 05:21:00
12:53 AM,30.0,21.9,72,29.72,10.0,WNW,13.8,21.9,0.00,,Scattered Clouds,300,2013-11-09 05:53:00
1:21 AM,30.2,21.2,69,29.71,10.0,WNW,13.8,-,N/A,,Overcast,300,2013-11-09 06:21:00
1:49 AM,28.4,21.2,74,29.72,7.0,WNW,20.7,26.5,0.00,Snow,Light Snow,290,2013-11-09 06:49:00
1:53 AM,28.0,23.0,81,29.75,7.0,WNW,18.4,26.5,0.00,Snow,Light Snow,300,2013-11-09 06:53:00
2:53 AM,28.9,19.9,69,29.78,10.0,NW,18.4,31.1,0.00,,Mostly Cloudy,310,2013-11-09 07:53:00
3:22 AM,28.4,21.2,74,29.76,8.0,WNW,16.1,27.6,0.00,Snow,Light Snow,300,2013-11-09 08:22:00
3:53 AM,28.0,19.9,72,29.81,10.0,WNW,16.1,25.3,0.00,,Mostly Cloudy,300,2013-11-09 08:53:00
4:12 AM,28.4,21.2,74,29.78,9.0,WNW,18.4,26.5,0.00,Snow,Light Snow,290,2013-11-09 09:12:00
4:29 AM,28.4,21.2,74,29.79,10.0,WNW,21.9,32.2,0.00,,Overcast,300,2013-11-09 09:29:00
4:53 AM,28.0,21.0,75,29.83,10.0,WNW,20.7,28.8,0.00,,Overcast,290,2013-11-09 09:53:00
5:53 AM,28.9,18.0,64,29.85,10.0,WNW,25.3,33.4,N/A,,Overcast,300,2013-11-09 10:53:00
6:53 AM,28.9,18.0,64,29.88,10.0,NW,13.8,33.4,N/A,,Overcast,310,2013-11-09 11:53:00
7:53 AM,30.0,18.0,61,29.90,10.0,NW,19.6,28.8,N/A,,Overcast,320,2013-11-09 12:53:00
8:53 AM,30.0,18.0,61,29.92,10.0,NW,19.6,27.6,N/A,,Overcast,310,2013-11-09 13:53:00
9:53 AM,30.0,18.0,61,29.95,10.0,NW,17.3,27.6,N/A,,Overcast,320,2013-11-09 14:53:00
10:53 AM,30.0,19.0,64,29.95,10.0,NW,11.5,-,N/A,,Overcast,320,2013-11-09 15:53:00
11:53 AM,30.9,18.0,59,29.95,10.0,NW,17.3,23.0,N/A,,Overcast,310,2013-11-09 16:53:00
12:53 PM,30.9,18.0,59,29.96,10.0,NW,15.0,24.2,N/A,,Overcast,310,2013-11-09 17:53:00
1:53 PM,32.0,18.0,56,29.98,10.0,WNW,15.0,20.7,N/A,,Overcast,300,2013-11-09 18:53:00
2:53 PM,30.9,18.0,59,29.99,10.0,WNW,13.8,20.7,N/A,,Overcast,300,2013-11-09 19:53:00
3:53 PM,30.9,18.0,59,30.01,10.0,WNW,11.5,-,N/A,,Overcast,300,2013-11-09 20:53:00
4:53 PM,30.0,17.1,59,30.02,10.0,NW,10.4,-,N/A,,Overcast,310,2013-11-09 21:53:00
5:53 PM,30.0,17.1,59,30.03,10.0,NW,10.4,-,N/A,,Overcast,320,2013-11-09 22:53:00
6:53 PM,30.0,17.1,59,30.04,10.0,NW,4.6,-,N/A,,Overcast,320,2013-11-09 23:53:00
7:53 PM,28.9,18.0,64,30.04,10.0,Calm,Calm,-,N/A,,Overcast,0,2013-11-10 00:53:00
8:53 PM,30.0,18.0,61,30.04,10.0,Calm,Calm,-,N/A,,Overcast,0,2013-11-10 01:53:00
9:53 PM,30.0,19.0,64,30.04,10.0,Calm,Calm,-,N/A,,Overcast,0,2013-11-10 02:53:00
10:53 PM,28.9,18.0,64,30.04,10.0,Calm,Calm,-,N/A,,Overcast,0,2013-11-10 03:53:00
11:53 PM,28.9,19.0,67,30.02,10.0,East,3.5,-,N/A,,Overcast,80,2013-11-10 04:53:00